User: anonymous   Login
Location: Unspecified
(42.3833°S, 0.0000°E)
Time: 14:09:52
(UTC+00:00)
Language:

FAST 1 (USA 222) - Orbit

View from above orbital plane
View from above orbital plane
View from above satellite
View from above satellite

Ground track
Ground track

The orbit is defined by the following mean orbital elements,

1 37227U          26088.07281020 +.00000000 +00000-0 +12173-3 0 00005
2 37227  71.9666 314.9847 0016859 264.8060  95.1182 14.85107858    02
Epoch (UTC): 29 March 2026 01:44:50
Eccentricity: 0.0016859
inclination: 71.9666°
perigee height: 601 km
apogee height: 625 km
right ascension of ascending node: 314.9847°
argument of perigee: 264.8060°
revolutions per day: 14.85107858
mean anomaly at epoch: 95.1182°

The dashed part of the orbit path shows where the satellite is in the earth's shadow,  

DLR